Location: Fort Wayne
(41.1310°N, 85.1290°W)
Time: 16:25:39
(UTC-04:00)

Cosmos 1953 - Visible Passes

Search period start: 24 July 2016 00:00
Search period end: 03 August 2016 00:00
Orbit: 543 x 560 km, 82.5° (Epoch: 23 July)

Date Brightness Start Highest point End Pass type
(mag) Time Alt. Az. Time Alt. Az. Time Alt. Az.
24 Jul 5.2 04:06:29 10° ESE 04:08:08 12° E 04:09:49 10° ENE visible
24 Jul 2.7 05:40:15 10° SSW 05:44:07 46° W 05:48:03 10° N visible
25 Jul 5.1 04:02:19 10° ESE 04:04:23 14° E 04:06:27 10° NE visible
25 Jul 2.9 05:36:41 10° SSW 05:40:25 41° WNW 05:44:18 10° N visible
26 Jul 5.0 03:58:15 10° ESE 04:00:37 15° E 04:03:01 10° NE visible
26 Jul 3.0 05:33:27 13° SW 05:36:44 37° WNW 05:40:31 10° N visible
27 Jul 4.8 03:54:25 11° SE 03:56:52 17° E 03:59:31 10° NE visible
27 Jul 3.2 05:30:12 15° SW 05:33:01 33° WNW 05:36:44 10° NNW visible
28 Jul 4.7 03:51:07 14° ESE 03:53:06 19° E 03:55:59 10° NE visible
28 Jul 3.3 05:26:54 17° SW 05:29:20 30° WNW 05:32:57 10° NNW visible
29 Jul 4.4 03:47:49 17° ESE 03:49:22 21° E 03:52:26 10° NE visible
29 Jul 3.5 05:23:35 18° WSW 05:25:39 27° WNW 05:29:09 10° NNW visible
30 Jul 4.2 03:44:28 20° ESE 03:45:36 23° E 03:48:51 10° NE visible
30 Jul 3.6 05:20:15 19° WSW 05:21:57 24° WNW 05:25:20 10° NNW visible
31 Jul 4.0 03:41:07 24° ESE 03:41:51 26° E 03:45:15 10° NNE visible
31 Jul 3.8 05:16:53 19° WSW 05:18:17 22° WNW 05:21:30 10° NNW visible
01 Aug 3.9 03:37:44 28° E 03:38:07 28° E 03:41:38 10° NNE visible
01 Aug 3.9 05:13:30 18° W 05:14:35 20° WNW 05:17:39 10° NNW visible
02 Aug 3.7 03:34:20 32° E 03:34:22 32° E 03:38:00 10° NNE visible
02 Aug 4.0 05:10:06 17° W 05:10:54 18° WNW 05:13:47 10° NNW visible
